My Meet Scores
Grace Houseman, Gym Stars ETC - MyMeetScores.com
Top100 | Top Teams | Upcoming Meets | Completed Meets | Latest | Add Scores | Help| Support | Bookmark and Share

Grace Houseman, Gym Stars ETC
Personal Bests
LevelVault BarsBeamFloorAA
XG9.2509.625 9.1259.45036.750
XS9.6509.750 9.7259.40038.000
Meet Scores
Date Meet Team Session Level Division Vault Bars Beam Floor AA
2019-05-03 2019 Region 5 Xcel Championships Gym Stars ETC 09D XG CH D 8.725 39T 8.650 31 8.900 24T 9.225 18T 35.500 32
2019-04-05 2019 Illinois XG, XP, XD State Championships Gym Stars ETC 7 XG Ch E 9.250 3T 9.625 2 9.050 10 8.825 19 36.750 12
2019-03-08 Lucky Invite Gym Stars ETC B03 XG Jr A 8.725 11T 8.825 17 9.125 13 9.450 3 36.125 12
2019-02-15 Women's Midwest Open Gym Stars ETC 10 XG Junior A 8.725 10 8.475 15 8.650 11 8.775 17 34.625 15
2019-02-01 St. Valentines Classic Gym Stars ETC 5B XG 10-11 yrs. 8.350 21 8.350 17T 8.250 15T 8.950 11T 33.900 19
2019-01-11 St Jude Benefit Meet Gym Stars ETC 5C XG Jr A 9.125 4 8.925 12 8.750 8 9.050 9T 35.850 7
2018-12-14 Hawaiian Pineapple Classic Gym Stars ETC 7A XG Age11 9.000 2 7.900 13 8.950 3T 9.100 4T 34.950 7
2018-11-17 Paul Hamm Thanksgiving Class WOMENS Gym Stars ETC 8 XG Younger 8.950 10T 9.000 9 8.525 11 9.050 10T 35.525 8
2018-04-26 Xcel Region 5 Championships Gym Stars ETC 6B XS Ch E 9.600 2 9.550 6 9.475 5 9.375 7 38.000 3
2018-04-06 XCEL State Championships Gym Stars ETC 3A XS Ch D 9.475 6 9.425 10 9.725 3 9.325 12T 37.950 5
2018-03-09 Lucky Invitational Gym Stars ETC B09 XS Jr A 9.025 4 9.750 2 9.350 4T 9.400 2T 37.525 1
2018-02-16 Big Classic Gym Stars ETC 9A XS Junior B 9.500 2T 9.575 7T 9.525 5 9.025 6 37.625 5
2018-01-12 St Jude Benefit Meet Gym Stars ETC 9C XS JrA 9.125 3 9.350 5T 9.550 2 9.200 9T 37.225 2
2017-12-14 2017 Women's Hawaiian Pineapple Classic Gym Stars ETC 3A XS Age10 9.350 1 9.400 4T 9.525 2 9.225 8T 37.500 2
2017-11-17 SCGA Classic Gym Stars ETC 4 XS JrA 9.175 3 9.725 1 9.475 1 9.000 5 37.375 1
2017-05-11 2017 Region 5 Xcel Championships Gym Stars ETC 3B XS Ch B 9.150 19T 9.400 13 9.175 16T 9.150 19T 36.875 17
2017-04-21 2017 Illinois Xcel State Championships Gym Stars ETC 5 XS Ch B 9.350 2 9.575 2 9.375 5 9.050 18T 37.350 4
2017-03-10 Lucky Invitational Gym Stars ETC B07 XS Jr A 9.650 2 9.450 4T 9.600 1T 8.900 12 37.600 3
2017-02-24 Kinetic Classic Gym Stars ETC 8 XS All Ages 9.100 10 9.450 22T 9.300 32T 9.150 16T 37.000 17T
2017-02-10 IGI Chicago Style Gymnastics Meet Gym Stars ETC 631L XS JrA 8.750 4 9.375 1 8.950 7 9.275 3 36.350 3
Get your scores on
a t-shirt, pin, or hoodie

www.lazysuits.com